Flag for U.S.A. Weather past 2 weeks in Visalia, California, U.S.A.

Now
54 °F

Overcast.


Feels Like: 52 °F
Forecast: 43 / 58 °F
Wind: 6 mph from North

Location: Visalia Municipal

Current Time: Mar 1, 2015 at 6:03:27 PM

Latest Report: Mar 1, 2015 at 5:35 PM


Visibility: 10 mi

Pressure: 29.92 "Hg

Humidity: 67%

Dew point: 43 °F

Location of VisaliaLocation

Historic Weather in Visalia — Graph

°F

Visalia temperature yesterday

Maximum temperature yesterday: 61 °F (at 3:15 PM)
Minimum temperature yesterday: 43 °F (at 4:35 AM)
Average temperature yesterday: 51 °F

Past Weeks' High & Low Weather Summary

 TemperatureHumidityPressure
High75 °F (Feb 16, 2:35 PM)94% (Feb 19, 11:15 AM)30.38 "Hg (Feb 19, 11:15 AM)
Low37 °F (Feb 24, 4:35 AM)36% (Feb 17, 3:15 PM)29.71 "Hg (Feb 27, 5:35 PM)
Average53 °F72%30.02 "Hg
* Reported Feb 14 4:15 PM — Mar 1 4:55 PM, Visalia, Weather by CustomWeather, © 2015

Note: Actual official high and low records may vary slightly from our data, if they occured in-between our weather recording intervals... More about our weather records

Advertising

Visalia weather history for previous 24 hours

 ConditionsComfort  
Time TempWeatherWind HumidityBarometerVisibility
4:55 PM
Sun, Mar 1
52 °FMore clouds than sun.8 mph72%29.93 "Hg10 mi
4:35 PM52 °FOvercast.10 mph72%29.94 "Hg10 mi
4:15 PM54 °FMore clouds than sun.9 mph58%29.94 "Hg9 mi
3:55 PM57 °FMostly cloudy.10 mph59%29.93 "Hg10 mi
3:35 PM61 °FCloudy.3 mph52%29.93 "Hg10 mi
3:15 PM61 °FCloudy.No wind52%29.93 "Hg10 mi
2:55 PM63 °FScattered clouds.7 mph52%29.93 "Hg10 mi
2:35 PM63 °FSunny.7 mph52%29.93 "Hg10 mi
2:15 PM63 °FSunny.9 mph52%29.93 "Hg10 mi
1:55 PM61 °FPassing clouds.5 mph55%29.93 "Hg10 mi
1:35 PM61 °FPassing clouds.6 mph55%29.93 "Hg10 mi
1:15 PM59 °FPassing clouds.5 mph59%29.94 "Hg10 mi
12:55 PM59 °FScattered clouds.6 mph55%29.95 "Hg10 mi
12:35 PM61 °FBroken clouds.5 mph55%29.96 "Hg10 mi
11:35 AM59 °FPassing clouds.6 mph63%29.98 "Hg10 mi
11:15 AM55 °FSunny.5 mph67%29.98 "Hg10 mi
10:55 AM55 °FSunny.3 mph67%29.99 "Hg10 mi
10:35 AM55 °FSunny.6 mph67%29.99 "Hg10 mi
10:15 AM55 °FSunny.5 mph67%29.99 "Hg10 mi
9:55 AM54 °FSunny.5 mph72%29.99 "Hg10 mi
9:35 AM54 °FSunny.3 mph72%29.99 "Hg10 mi
8:55 AM48 °FSunny.No wind82%29.99 "Hg10 mi
8:35 AM45 °FSunny.No wind81%29.98 "Hg10 mi
8:15 AM43 °FSunny.No wind81%29.98 "Hg10 mi
7:55 AM43 °FSunny.No wind81%29.98 "Hg10 mi
7:35 AM41 °FSunny.No wind81%29.97 "Hg10 mi
7:15 AM41 °FSunny.No wind81%29.96 "Hg10 mi
6:55 AM41 °FSunny.No wind81%29.96 "Hg10 mi
6:35 AM41 °FSunny.3 mph81%29.95 "Hg10 mi
6:15 AM39 °FClear.3 mph81%29.95 "Hg10 mi
5:55 AM41 °FClear.3 mph81%29.94 "Hg8 mi
5:35 AM39 °FClear.No wind81%29.94 "Hg7 mi
5:15 AM41 °FClear.3 mph81%29.94 "Hg8 mi
4:55 AM43 °FClear.No wind76%29.94 "Hg10 mi
4:35 AM43 °FClear.No wind76%29.93 "Hg10 mi
4:15 AM43 °FClear.3 mph76%29.93 "Hg10 mi
3:55 AM43 °FClear.3 mph76%29.93 "Hg10 mi
3:35 AM43 °FClear.3 mph76%29.93 "Hg10 mi
3:15 AM43 °FClear.No wind76%29.93 "Hg10 mi
2:55 AM41 °FPassing clouds.No wind81%29.93 "Hg10 mi
2:35 AM43 °FPassing clouds.3 mph81%29.93 "Hg10 mi
2:15 AM43 °FClear.No wind76%29.93 "Hg10 mi
1:55 AM43 °FClear.3 mph76%29.93 "Hg10 mi
1:35 AM45 °FClear.No wind76%29.93 "Hg10 mi
1:15 AM45 °FClear.No wind76%29.93 "Hg10 mi
12:55 AM45 °FClear.No wind76%29.93 "Hg10 mi
12:35 AM46 °FClear.No wind71%29.92 "Hg10 mi
12:15 AM45 °FClear.No wind81%29.93 "Hg10 mi
11:55 PM
Sat, Feb 28
45 °FClear.No wind76%29.92 "Hg10 mi
11:35 PM46 °FClear.No wind71%29.92 "Hg10 mi
11:15 PM46 °FClear.3 mph71%29.91 "Hg10 mi
10:55 PM46 °FClear.No wind76%29.91 "Hg10 mi
10:35 PM48 °FPassing clouds.No wind71%29.91 "Hg10 mi
10:15 PM48 °FOvercast.No wind71%29.90 "Hg10 mi
9:55 PM50 °FOvercast.No wind67%29.90 "Hg10 mi
9:15 PM52 °FOvercast.5 mph62%29.89 "Hg10 mi
8:55 PM52 °FMostly cloudy.6 mph62%29.88 "Hg10 mi
8:35 PM50 °FPassing clouds.3 mph67%29.88 "Hg10 mi
8:15 PM50 °FPassing clouds.3 mph67%29.86 "Hg10 mi
7:55 PM50 °FOvercast.3 mph67%29.86 "Hg10 mi
7:15 PM52 °FPassing clouds.No wind62%29.84 "Hg10 mi
6:55 PM52 °FOvercast.3 mph62%29.84 "Hg10 mi
6:35 PM52 °FMostly cloudy.8 mph62%29.84 "Hg10 mi
6:15 PM52 °FPartly cloudy.9 mph62%29.83 "Hg10 mi
Weather by CustomWeather, © 2015

See weather overviewHow to use our weather pages